Tracking 32523 objects as of 12-Dec-2025
HD Live streaming from Space Station
objects crossing your sky now

SITRO-AIS-8

Track SITRO-AIS-8 now!
10-day predictions
SITRO-AIS-8 is classified as:


NORAD ID: 57193
Int'l Code: 2023-091AD
Perigee: 485.0 km
Apogee: 502.6 km
Inclination: 97.5 °
Period: 94.3 minutes
Semi major axis: 6864 km
RCS: Unknown
Launch date: June 27, 2023
Source: (TBD)
Launch site: VOSTOCHNY COSMODROME (VOSTO)

Uplink (MHz):
Downlink (MHz): 401.230
Beacon (MHz):
Mode: 2k4 GMSK_USP
Call sign: SC2210
Status: Active

Your satellite tracking list
Your tracking list is empty




NASA's NSSDC Master Catalog

Two Line Element Set (TLE):
1 57193U 23091AD  25346.29263933  .00021101  00000-0  81104-3 0  9999
2 57193  97.5341  44.7465 0012857  44.4739 315.7529 15.26371197135889
Source of the keplerian elements: AFSPC